[[{"header":{"parameterUnit":"m.s-1","parameterCategory":1,"la1":30.2991,"la2":30.254,"lo1":-89.0895,"lo2":-89.0444,"dy":0.0017,"dx":0.0017,"nx":28,"ny":28,"refTime":"2025-02-28T09:00:00:Z","depth":0,"parameterNumber":2,"parameterNumberName":"U-component_of_WINDS"},"data":[0,0,0,0,0,0,0,0,0,0,0,0,0,0,0,0,0,0,0,0,0,0,0,0,0,0,0,0,0,0,0,0,0,0,0,0,0,0,0,0,0,0,0,0,0,0,0,0,0,0,0,0,0,0,0,0,0,0,-0.1812,-0.1812,0,-0.1759,-0.1759,-0.1758,-0.172,-0.172,-0.172,-0.1719,-0.1665,-0.1664,-0.1663,0,0,0,0,0,0,0,0,0,0,0,0,0,-0.1881,-0.188,-0.1812,-0.1811,-0.1811,-0.1759,-0.1759,-0.1758,-0.172,-0.172,-0.172,-0.1719,-0.1665,-0.1664,-0.1663,0,0,0,0,0,0,0,0,0,0,0,0,0,-0.1842,-0.1879,-0.1812,-0.1786,-0.1783,-0.176,-0.1759,-0.1758,-0.172,-0.172,-0.172,-0.1719,-0.1666,-0.1664,-0.1662,-0.1661,0,0,-0.1657,-0.1656,0,0,0,0,0,0,0,0,-0.1844,-0.1839,-0.179,-0.1788,-0.1784,-0.1746,-0.1763,-0.1725,-0.1721,-0.1744,-0.1719,-0.1719,-0.1692,-0.1688,-0.1679,-0.1658,-0.1656,-0.1657,-0.1656,-0.1655,-0.1655,0,0,0,0,0,0,0,-0.1847,-0.1841,-0.1791,-0.179,-0.1786,-0.1777,-0.1771,-0.1756,-0.1721,-0.1742,-0.1739,-0.1734,-0.1691,-0.1681,-0.1678,-0.1655,-0.1657,-0.1655,-0.1654,-0.1654,-0.1631,-0.1631,0,0,0,0,0,0,-0.1854,-0.1844,-0.1793,-0.179,-0.1814,-0.1776,-0.1769,-0.1759,-0.1721,-0.1715,-0.1734,-0.1732,-0.1684,-0.168,-0.1676,-0.1672,-0.1655,-0.1653,-0.1652,-0.163,-0.1631,-0.1631,0,0,0,0,0,0,-0.1855,-0.185,-0.1795,-0.1816,-0.1808,-0.1775,-0.1764,-0.1758,-0.1749,-0.1715,-0.1709,-0.1731,-0.1684,-0.1678,-0.1665,-0.167,-0.1653,-0.1651,-0.163,-0.1631,-0.1631,-0.1664,0,0,0,0,0,0,-0.1857,-0.185,-0.1849,-0.1816,-0.1807,-0.1785,-0.1764,-0.1757,-0.1746,-0.1743,-0.1711,-0.1705,-0.1683,-0.1668,-0.1663,-0.1667,-0.165,-0.1629,-0.163,-0.1631,-0.1663,-0.1666,-0.1669,0,0,0,0,0,-0.186,-0.186,-0.1849,-0.1843,-0.1805,-0.1785,-0.178,-0.1755,-0.1746,-0.1745,-0.1724,-0.1706,-0.167,-0.1667,-0.1661,-0.1665,-0.1629,-0.163,-0.1631,-0.1661,-0.1665,-0.1669,0,0,0,0,0,0,-0.1895,-0.1856,-0.1843,-0.1833,-0.1813,-0.1779,-0.1777,-0.176,-0.1743,-0.174,-0.171,-0.1703,-0.1693,-0.1677,-0.1675,-0.1661,-0.1647,-0.1647,-0.1672,-0.1676,-0.1679,-0.1683,-0.1648,0,0,0,0,0,-0.1901,-0.1888,-0.1855,-0.1849,-0.184,-0.181,-0.18,-0.1783,-0.1761,-0.1752,-0.173,-0.171,-0.1694,-0.1684,-0.1667,-0.166,-0.1653,-0.166,-0.1663,-0.1666,-0.1666,-0.1662,-0.1665,-0.1635,-0.1635,-0.1635,0,0,-0.1914,-0.1891,-0.1885,-0.1855,-0.1838,-0.1825,-0.1803,-0.1791,-0.1781,-0.175,-0.1737,-0.172,-0.1695,-0.1685,-0.168,-0.1672,-0.1673,-0.1667,-0.1669,-0.1668,-0.1663,-0.1666,-0.1669,-0.1635,-0.1635,-0.1635,0,0,-0.1932,-0.1913,-0.1906,-0.189,-0.1863,-0.1844,-0.1843,-0.1812,-0.1799,-0.1785,-0.1762,-0.175,-0.1723,-0.1707,-0.1695,-0.1707,-0.169,-0.1703,-0.1719,-0.1716,-0.1718,-0.172,-0.1725,-0.1727,-0.1703,-0.1703,-0.1703,0,-0.1951,-0.1932,-0.1905,-0.1894,-0.1882,-0.1854,-0.1847,-0.1832,-0.1802,-0.1795,-0.1786,-0.1752,-0.1733,-0.172,-0.1723,-0.1714,-0.1712,-0.1706,-0.172,-0.1721,-0.1723,-0.1727,-0.1729,-0.1705,-0.1705,-0.1705,-0.1704,0,-0.1957,-0.1944,-0.1942,-0.1914,-0.1902,-0.1893,-0.1866,-0.1856,-0.184,-0.1822,-0.1808,-0.1785,-0.1763,-0.1759,-0.1742,-0.1743,-0.1739,-0.1725,-0.1711,-0.1728,-0.1732,-0.1733,-0.1707,-0.1707,-0.1706,-0.1706,0,0,-0.1995,-0.1953,-0.1953,-0.194,-0.191,-0.1899,-0.1889,-0.1869,-0.1862,-0.1842,-0.1833,-0.1812,-0.1799,-0.1786,-0.1768,-0.1765,-0.1777,-0.1752,-0.1751,-0.1758,-0.1777,-0.1788,-0.179,-0.1765,-0.1766,-0.1766,-0.1779,0,-0.2009,-0.199,-0.1966,-0.1955,-0.1943,-0.1917,-0.1908,-0.1889,-0.1872,-0.1859,-0.1839,-0.1825,-0.1809,-0.1801,-0.1797,-0.1776,-0.178,-0.1775,-0.1758,-0.1757,-0.1765,-0.1792,-0.1803,-0.1816,-0.178,-0.1781,-0.1781,0,-0.2022,-0.2004,-0.1992,-0.1964,-0.1957,-0.195,-0.193,-0.1918,-0.1896,-0.1883,-0.1869,-0.185,-0.1838,-0.1825,-0.181,-0.1807,-0.1798,-0.1787,-0.1787,-0.1785,-0.177,-0.1791,-0.182,-0.1823,-0.1783,-0.1783,-0.1782,0,-0.2051,-0.2024,-0.2014,-0.2004,-0.197,-0.1966,-0.1951,-0.1929,-0.1918,-0.19,-0.1893,-0.1874,-0.1864,-0.185,-0.1826,-0.1818,-0.1814,-0.1798,-0.1803,-0.1804,-0.1804,-0.1804,-0.1833,-0.1798,-0.1798,-0.1798,-0.1798,0,-0.2069,-0.2063,-0.2027,-0.2021,-0.2014,-0.1986,-0.198,-0.1963,-0.1943,-0.1934,-0.1909,-0.1901,-0.187,-0.1858,-0.1839,-0.1829,-0.1825,-0.1815,-0.181,-0.1817,-0.1819,-0.1812,-0.181,-0.1798,-0.1798,-0.1798,-0.1798,0,-0.2101,-0.2076,-0.2064,-0.2033,-0.2025,-0.2021,-0.1995,-0.1988,-0.1969,-0.1957,-0.1953,-0.1924,-0.1909,-0.1883,-0.186,-0.1848,-0.1842,-0.1834,-0.185,-0.1847,-0.1854,-0.1854,-0.188,-0.1882,-0.1845,-0.1845,-0.1846,0,-0.2114,-0.2109,-0.2078,-0.207,-0.2056,-0.2043,-0.2033,-0.2006,-0.1996,-0.197,-0.1967,-0.195,-0.1934,-0.1911,-0.1888,-0.1871,-0.1862,-0.1872,-0.1859,-0.1867,-0.1863,-0.1864,-0.1863,-0.1875,-0.1876,-0.1876,-0.1876,0,-0.2141,-0.2129,-0.2114,-0.2096,-0.2084,-0.2068,-0.205,-0.2045,-0.2015,-0.2004,-0.1989,-0.1977,-0.1954,-0.1937,-0.1917,-0.1902,-0.1885,-0.1881,-0.1881,-0.1889,-0.1899,-0.1894,-0.1859,-0.188,-0.188,-0.188,-0.1879,-0.1879,-0.2164,-0.2158,-0.2136,-0.2121,-0.2105,-0.209,-0.2082,-0.2063,-0.2049,-0.2028,-0.2013,-0.1999,-0.1977,-0.1948,-0.1934,-0.1923,-0.1915,-0.1915,-0.1915,-0.1916,-0.1919,-0.19,-0.1919,-0.1919,-0.1918,-0.1918,-0.1918,0,-0.219,-0.2174,-0.216,-0.2137,-0.2126,-0.211,-0.209,-0.2082,-0.2069,-0.205,-0.2036,-0.2018,-0.2002,-0.1978,-0.1961,-0.1956,-0.1948,-0.1952,-0.1953,-0.195,-0.1927,-0.1929,-0.196,-0.196,-0.196,-0.196,-0.196,-0.196,-0.2202,-0.2192,-0.2178,-0.216,-0.2145,-0.213,-0.2121,-0.2107,-0.2092,-0.2073,-0.206,-0.2044,-0.2024,-0.2004,-0.1989,-0.1982,-0.1977,-0.1985,-0.1976,-0.1955,-0.1951,-0.1948,-0.1949,-0.1984,-0.1984,-0.2,-0.2,-0.2]},{"header":{"parameterUnit":"m.s-1","parameterCategory":1,"la1":30.2991,"la2":30.254,"lo1":-89.0895,"lo2":-89.0444,"dy":0.0017,"dx":0.0017,"nx":28,"ny":28,"refTime":"2025-02-28T09:00:00:Z","depth":0,"parameterNumber":3,"parameterNumberName":"V-component_of_WINDS"},"data":[0,0,0,0,0,0,0,0,0,0,0,0,0,0,0,0,0,0,0,0,0,0,0,0,0,0,0,0,0,0,0,0,0,0,0,0,0,0,0,0,0,0,0,0,0,0,0,0,0,0,0,0,0,0,0,0,0,0,1.1433,1.1432,0,1.1397,1.1396,1.1396,1.1415,1.1416,1.1417,1.1418,1.1379,1.1377,1.1375,0,0,0,0,0,0,0,0,0,0,0,0,0,1.1515,1.1514,1.1433,1.1432,1.1432,1.1397,1.1396,1.1396,1.1415,1.1417,1.1418,1.1419,1.1379,1.1377,1.1375,0,0,0,0,0,0,0,0,0,0,0,0,0,1.1479,1.1513,1.1433,1.1437,1.1437,1.1397,1.1396,1.1396,1.1415,1.1417,1.1418,1.1419,1.138,1.1377,1.1374,1.1327,0,0,1.1365,1.1364,0,0,0,0,0,0,0,0,1.1481,1.1476,1.1437,1.1437,1.1437,1.1412,1.1411,1.1373,1.1415,1.1423,1.1418,1.142,1.1389,1.1385,1.1375,1.1325,1.1323,1.1365,1.1363,1.1362,1.1361,0,0,0,0,0,0,0,1.1484,1.1478,1.1418,1.1437,1.1436,1.144,1.1437,1.1404,1.1398,1.1423,1.1424,1.142,1.1389,1.1378,1.1374,1.1323,1.1365,1.1363,1.1361,1.136,1.1231,1.1229,0,0,0,0,0,0,1.1486,1.148,1.142,1.1417,1.1463,1.1438,1.1434,1.1419,1.1399,1.1397,1.1419,1.1421,1.1382,1.1378,1.1373,1.1315,1.1362,1.1359,1.1358,1.1232,1.123,1.1228,0,0,0,0,0,0,1.1488,1.1481,1.1421,1.1449,1.1442,1.1435,1.1417,1.1417,1.1406,1.1395,1.1394,1.1409,1.1383,1.1377,1.1338,1.1314,1.1358,1.1355,1.1234,1.1232,1.1229,1.1199,0,0,0,0,0,0,1.149,1.1481,1.1464,1.1448,1.144,1.1388,1.1416,1.1415,1.1401,1.1404,1.1386,1.1384,1.1384,1.1342,1.1335,1.1311,1.1353,1.1236,1.1233,1.123,1.1202,1.1196,1.1191,0,0,0,0,0,1.1493,1.1456,1.1463,1.1455,1.1418,1.1386,1.1381,1.1383,1.1399,1.1381,1.1374,1.1385,1.1318,1.1338,1.133,1.1304,1.1238,1.1234,1.123,1.1205,1.1197,1.1191,0,0,0,0,0,0,1.1468,1.1454,1.1461,1.1419,1.1403,1.139,1.1367,1.1375,1.1354,1.1357,1.1359,1.1354,1.1314,1.1305,1.1328,1.1257,1.128,1.1275,1.1264,1.1256,1.1251,1.1253,1.1351,0,0,0,0,0,1.1458,1.1434,1.1423,1.1386,1.1378,1.1374,1.136,1.1362,1.1346,1.134,1.133,1.1313,1.1288,1.1272,1.1249,1.1201,1.1197,1.118,1.1174,1.1169,1.1164,1.1137,1.1129,1.1216,1.1216,1.1216,0,0,1.1435,1.1425,1.141,1.1381,1.1369,1.1343,1.1368,1.134,1.132,1.1335,1.1298,1.129,1.1271,1.1228,1.1208,1.122,1.1139,1.1164,1.1161,1.1158,1.1133,1.1124,1.1117,1.1214,1.1214,1.1215,0,0,1.1382,1.1372,1.134,1.1328,1.1311,1.1308,1.1301,1.1285,1.1281,1.1244,1.1254,1.1231,1.1188,1.1174,1.1162,1.1103,1.1111,1.1095,1.1064,1.1038,1.1031,1.1025,1.1003,1.0996,1.109,1.109,1.109,0,1.1356,1.1319,1.1322,1.1293,1.128,1.1293,1.126,1.1248,1.1223,1.1213,1.1227,1.1174,1.1162,1.1115,1.1101,1.109,1.1081,1.1097,1.1032,1.1026,1.1021,1.1,1.0991,1.1088,1.1089,1.1089,1.1089,0,1.1288,1.1262,1.1238,1.1214,1.1198,1.1167,1.1165,1.1148,1.1152,1.1148,1.1109,1.1096,1.107,1.1059,1.1062,1.1012,1.1019,1.1033,1.1056,1.101,1.0991,1.0983,1.1086,1.1086,1.1087,1.1087,0,0,1.1217,1.1196,1.1187,1.1177,1.1159,1.1138,1.1107,1.1083,1.1067,1.105,1.1024,1.0988,1.0999,1.0985,1.0987,1.0964,1.0917,1.098,1.098,1.0968,1.086,1.085,1.084,1.0923,1.0922,1.0921,1.0861,0,1.1161,1.1109,1.1111,1.1061,1.1036,1.1048,1.1021,1.1007,1.1002,1.0979,1.0973,1.0947,1.0966,1.0957,1.0935,1.0928,1.0895,1.0932,1.0897,1.0896,1.0901,1.083,1.0819,1.0764,1.0854,1.0852,1.0851,0,1.109,1.1071,1.1018,1.1004,1.0993,1.0969,1.0946,1.0925,1.0908,1.0906,1.089,1.0896,1.0863,1.0889,1.0843,1.0868,1.0854,1.0848,1.0846,1.0842,1.087,1.0823,1.0746,1.0737,1.0839,1.084,1.0841,0,1.1042,1.1003,1.0967,1.0957,1.094,1.0922,1.0914,1.0899,1.0883,1.0863,1.0853,1.083,1.0816,1.0797,1.0795,1.0814,1.0749,1.0775,1.0746,1.0746,1.0731,1.0731,1.0649,1.0723,1.0723,1.0724,1.0724,0,1.0979,1.0946,1.0945,1.0923,1.0886,1.0889,1.0852,1.0845,1.0832,1.0807,1.0816,1.0793,1.0793,1.0768,1.0767,1.0729,1.0723,1.072,1.0719,1.0718,1.0719,1.0708,1.0712,1.0721,1.0722,1.0722,1.0723,0,1.0919,1.0917,1.0878,1.0865,1.086,1.0834,1.0822,1.08,1.0796,1.0765,1.0758,1.0751,1.0723,1.072,1.0687,1.0686,1.064,1.0644,1.0646,1.0646,1.0617,1.0619,1.0524,1.0511,1.0595,1.0594,1.0593,0,1.0879,1.0854,1.0838,1.0823,1.0813,1.0789,1.0773,1.0775,1.0758,1.0737,1.0718,1.0691,1.0669,1.0624,1.0615,1.059,1.0593,1.0562,1.0589,1.0589,1.0591,1.0592,1.0589,1.0556,1.0555,1.0554,1.0554,0,1.0807,1.0807,1.0785,1.0763,1.0745,1.0727,1.071,1.0697,1.0696,1.0677,1.0649,1.0632,1.0599,1.0572,1.0547,1.0537,1.0545,1.0546,1.0537,1.0535,1.0536,1.0534,1.063,1.0547,1.0548,1.0548,1.0549,1.0549,1.0755,1.0733,1.0718,1.0693,1.0681,1.0665,1.0644,1.0637,1.0614,1.0588,1.059,1.0559,1.0542,1.051,1.0498,1.0473,1.0483,1.0472,1.0468,1.0465,1.0462,1.0542,1.0469,1.0469,1.0469,1.0469,1.0469,0,1.0682,1.0674,1.0651,1.0627,1.0608,1.0618,1.06,1.0582,1.0555,1.0539,1.0518,1.0485,1.0459,1.0449,1.0422,1.0404,1.0407,1.0397,1.0398,1.0395,1.0454,1.0464,1.0395,1.0395,1.0395,1.0395,1.0395,1.0395,1.0642,1.0606,1.0604,1.0561,1.0553,1.0523,1.0511,1.0496,1.0484,1.0447,1.0426,1.0419,1.0405,1.0378,1.0354,1.0352,1.0341,1.033,1.0328,1.0384,1.0391,1.0398,1.0407,1.0328,1.0328,1.0271,1.0271,1.027]}]]